Weather History for PATK - November, 2013

Change the Weather History Date:

Sunday, November 3, 2013

  Actual Average Record
Temperature  
Mean Temperature 35 °F -  
Max Temperature 37 °F 31 °F 48 °F (2002)
Min Temperature 33 °F 15 °F -18 °F (1950)
Degree Days  
Heating Degree Days 30    
Moisture  
Dew Point 31 °F    
Average Humidity 82    
Maximum Humidity 92    
Minimum Humidity 71    
Precipitation  
Precipitation 0.00 in - - ()
Sea Level Pressure  
Sea Level Pressure 29.79 in    
Wind  
Wind Speed 4 mph (North)    
Max Wind Speed 7 mph    
Max Gust Speed -    
Visibility 10 miles    
Events      
Averages and records for this station are not official NWS values.
T = Trace of Precipitation, MM = Missing Value Source: NWS Daily Summary

Daily Weather History Graph

Daily Weather History Graph

Search for Another Location

Airport or City:

Trip Planner

Search our weather history database for the weather conditions in past years. The results will help you decide how hot, cold, wet, or windy it might be!

Date:

Astronomy

Nov. 03, 2013 Rise Set
Actual Time 8:40 AM AKST 4:46 PM AKST
Civil Twilight 7:50 AM AKST 5:36 PM AKST
Nautical Twilight 6:56 AM AKST 6:29 PM AKST
Astronomical Twilight 6:04 AM AKST 7:21 PM AKST
Moon 9:05 AM AKST (11/3) 4:54 PM AKST (11/3)
Length of Visible Light 9h 45m
Length of Day
8h 05m
New Moon, 0% of the Moon is Illuminated
Nov 3
New Moon
Nov 9
First Quarter
Nov 17
Full
Nov 25
Last Quarter
Dec 2
New

Hourly Weather History & Observations

Time (AKST) Temp. Windchill Dew Point Humidity Pressure Visibility Wind Dir Wind Speed Gust Speed Precip Events Conditions
12:53 AM 36.0 °F 33.3 °F 33.1 °F 89% 29.87 in 10.0 mi North 3.5 mph - N/A   Overcast
1:53 AM 35.1 °F 31.0 °F 33.1 °F 92% 29.88 in 10.0 mi NNW 4.6 mph - N/A   Overcast
1:53 AM 35.1 °F 31.0 °F 32.0 °F 89% 29.88 in 10.0 mi North 4.6 mph - N/A   Overcast
2:53 AM 35.1 °F - 32.0 °F 89% 29.88 in 10.0 mi Calm Calm - N/A   Overcast
3:53 AM 35.1 °F 31.0 °F 30.9 °F 85% 29.86 in 10.0 mi North 4.6 mph - N/A   Overcast
4:53 AM 34.0 °F 31.0 °F 32.0 °F 92% 29.85 in 10.0 mi North 3.5 mph - N/A   Overcast
5:53 AM 35.1 °F 32.2 °F 30.9 °F 85% 29.84 in 10.0 mi North 3.5 mph - N/A   Overcast
6:53 AM 34.0 °F 29.8 °F 30.9 °F 89% 29.83 in 10.0 mi North 4.6 mph - N/A   Overcast
7:53 AM 35.1 °F 31.0 °F 28.9 °F 78% 29.83 in 10.0 mi NNE 4.6 mph - N/A   Overcast
8:53 AM 35.1 °F 31.0 °F 28.9 °F 78% 29.83 in 10.0 mi North 4.6 mph - N/A   Overcast
9:53 AM 36.0 °F 30.3 °F 28.0 °F 73% 29.82 in 10.0 mi North 6.9 mph - N/A   Overcast
10:53 AM 37.0 °F 34.5 °F 28.9 °F 73% 29.83 in 10.0 mi Variable 3.5 mph - N/A   Overcast
11:53 AM 37.0 °F 34.5 °F 30.9 °F 79% 29.82 in 10.0 mi North 3.5 mph - N/A   Overcast
12:53 PM 37.0 °F 34.5 °F 30.9 °F 79% 29.81 in 10.0 mi North 3.5 mph - N/A   Overcast
1:53 PM 37.0 °F 33.3 °F 32.0 °F 82% 29.80 in 10.0 mi North 4.6 mph - N/A   Overcast
2:53 PM 37.0 °F 33.3 °F 30.9 °F 79% 29.78 in 10.0 mi North 4.6 mph - N/A   Overcast
3:53 PM 37.0 °F 33.3 °F 32.0 °F 82% 29.76 in 10.0 mi North 4.6 mph - N/A   Overcast
4:53 PM 37.0 °F 33.3 °F 32.0 °F 82% 29.75 in 10.0 mi North 4.6 mph - N/A   Overcast
5:53 PM 36.0 °F 32.1 °F 32.0 °F 86% 29.73 in 10.0 mi North 4.6 mph - N/A   Overcast
6:53 PM 36.0 °F 32.1 °F 32.0 °F 86% 29.71 in 10.0 mi North 4.6 mph - N/A   Overcast
7:53 PM 36.0 °F 32.1 °F 30.0 °F 79% 29.70 in 10.0 mi North 4.6 mph - N/A   Overcast
8:53 PM 36.0 °F 32.1 °F 30.9 °F 82% 29.68 in 10.0 mi North 4.6 mph - N/A   Overcast
9:53 PM 36.0 °F 33.3 °F 30.9 °F 82% 29.66 in 10.0 mi North 3.5 mph - N/A   Overcast
10:53 PM 36.0 °F 33.3 °F 30.0 °F 79% 29.65 in 10.0 mi North 3.5 mph - N/A   Overcast